Location: Asheville, NC
(35.6000°N, 82.5500°W)
Time: 16:36:55
(UTC-05:00)

NO-84 - Pass Details

Date: 05 January 2018
Orbit: 336 x 568 km, 55.0° (Epoch: 15 January)

Event Time Altitude Azimuth Distance (km) Brightness Sun altitude
Exits shadow 05:57:29 22° 16° (NNE) 956 ? -20.4°
Maximum altitude 05:58:18 24° 41° (NE) 901 ? -20.2°
Drops below altitude 10° 06:01:08 10° 97° (E) 1,528 ? -19.6°
Sets 06:03:36 0° 111° (ESE) 2,446 ? -19.2°
